Lexington Weather

Lexington, Massachusetts, USA

46°F
10/22/2019 2:16am 
  • Lexington Conditions: Mostly cloudy
  • Temperature: 46.4°F / 8.0°CWarmer 0.9°F than last hour.
  • Dew Point: 44.8°FIncreased 1.5°Fsince last hour.
  • Relative Humidity: 94%Increased 2.0% since last hour.
  • Wind: Calm, 10-min avg: Calm, gust: None
  • Barometer: 30.12 in Steady
  • Visibility: 9 miles
  • Rain Today: 0.00 in
  •   

Regional Weather Roundup
for Boston, MA

        
000
ASUS41 KBOX 191610
RWRBOX

REGIONAL WEATHER ROUNDUP
NATIONAL WEATHER SERVICE BOSTON/NORTON MA
1200 PM EDT SAT OCT 19 2019

NOTE:  "FAIR" INDICATES FEW OR NO CLOUDS BELOW 12,000 FEET WITH NO 
SIGNIFICANT WEATHER AND/OR OBSTRUCTIONS TO VISIBILITY.

MAZALL-191700-
EASTERN MASSACHUSETTS
  
CITY           SKY/WX    TMP DP  RH WIND       PRES   REMARKS
BOSTON         FAIR      55  34  45 NW8       30.01F                  
BEVERLY        FAIR      53  35  50 VRB6      29.99F                  
LAWRENCE       FAIR      52  34  50 W6        30.01F                  
BEDFORD        FAIR      55  34  45 NW8       30.00F                  
BLUE HILL      NOT AVBL                                               
NORWOOD        FAIR      56  35  45 W8        30.01F                  
MARSHFIELD     FAIR      54  36  50 CALM      30.01S                  
PLYMOUTH       FAIR      54  37  52 NW7       30.01S                  
TAUNTON        FAIR      55  34  45 W7        30.01F                  
NEW BEDFORD    FAIR      54  36  50 W6        30.01S                  
$$

MAZALL-191700-
CAPE COD AND THE ISLANDS
  
CITY           SKY/WX    TMP DP  RH WIND       PRES   REMARKS
FALMOUTH       SUNNY     52  36  54 CALM      30.01F                  
HYANNIS        FAIR      53  38  56 N8        30.00F                  
CHATHAM        NOT AVBL                                               
PROVINCETOWN   FAIR      51  39  63 N8          N/A                   
NANTUCKET      FAIR      53  40  61 NW10      30.02S                  
MARTHAS VNYRD  FAIR      54  36  50 N7        30.02S                  
$$
 
MAZALL-191700-
CENTRAL AND WESTERN MASSACHUSETTS
  
CITY           SKY/WX    TMP DP  RH WIND       PRES   REMARKS
WORCESTER      FAIR      48  33  56 VRB7      30.01S                  
FITCHBURG      FAIR      54  32  43 NW6       30.02S                  
ORANGE         FAIR      52  32  46 NW8       30.03F                  
SPRINGFIELD    MOSUNNY   56  35  45 W5        30.03F                  
WESTFIELD      FAIR      54  34  46 CALM      30.03F                  
NORTH ADAMS    FAIR      49  33  54 NW8       30.05S                  
PITTSFIELD     FAIR      50  34  54 W9        30.03S                  
$$
 
RIZALL-191700-
RHODE ISLAND
  
CITY           SKY/WX    TMP DP  RH WIND       PRES   REMARKS
PROVIDENCE     FAIR      54  36  50 NW8       30.04S                  
NEWPORT        FAIR      53  36  52 NW10      30.03S                  
BLOCK ISLAND   FAIR      52  36  54 W9        30.06R                  
SMITHFIELD     FAIR     N/A N/A N/A CALM      30.02S                  
WESTERLY       FAIR      57  37  47 VRB6      30.05S                  
$$
 
CTZALL-191700-
CONNECTICUT
  
CITY           SKY/WX    TMP DP  RH WIND       PRES   REMARKS
BRADLEY INTL   FAIR      55  35  47 CALM      30.04F                  
HARTFORD       FAIR      54  37  52 VRB5      30.05S                  
BRIDGEPORT     FAIR      55  37  50 SW5       30.07F                  
DANBURY        FAIR      53  36  52 VRB7      30.07F                  
GROTON         FAIR      54  35  48 W8        30.05S                  
NEW HAVEN      FAIR      56  40  55 SW6       30.06F                  
CHESTER        FAIR      55  36  47 VRB5      30.05S                  
MERIDEN        FAIR      54  37  52 VRB6      30.05F                  
WILLIMANTIC    FAIR      53  35  50 W7        30.05S                  
OXFORD         FAIR      51  37  58 VRB6      30.06S                  
$$

MEZ002-015-021-024-NHZ003-005-008-011-012-014-VTZ005-008-191700-
NORTHERN NEW ENGLAND
  
CITY           SKY/WX    TMP DP  RH WIND       PRES   REMARKS
PORTLAND ME    FAIR      55  35  47 NW7       29.98S                  
BANGOR ME      FAIR      53  34  48 NW13G23   29.91R                  
CONCORD NH     FAIR      53  32  44 NW14G20   30.00F                  
MANCHESTER NH  FAIR      54  31  41 NW14      29.99F                  
NASHUA NH      FAIR      53  33  46 NW9G17    30.01F                  
PORTSMOUTH NH  SUNNY     55  32  42 W8        29.97F                  
JAFFREY NH     FAIR      50  31  48 W7        30.00F                  
KEENE NH       FAIR      51  32  48 VRB7      30.02F                  
BURLINGTON VT  PTSUNNY   50  31  48 NW9       30.06F                  
MT. WASHINGTON PTSUNNY   28   7  40 NW43G51     N/A  WCI  10          
$$

NYZ052-076-191700-
EASTERN NEW YORK
  
CITY           SKY/WX    TMP DP  RH WIND       PRES   REMARKS
ALBANY         FAIR      53  35  50 N8        30.08F                  
NEW YORK CITY  FAIR      55  34  45 W8        30.08F                  
$$
 
ANZALL-191700-
MARINE OBSERVATIONS
  
STATION/POSITION TIME  TEMP    WIND        PRES    VSBY  WAVE
                       AIR SEA DIR/SP/G                  HT/PER
                 (UTC) (F)     (DEG/KT/KT) (MB)    (MI)  (FT/S)
BOSTON BUOY      1550   49 56  300/  6/  8 1015.6R         2/ 3
BUZZARDS BAY     1500   49     340/  9/ 12 1017.3F
NANTUCKET SOUND  1540      56                N/A           1/ 2
MASS BAY-STELLWA 1504   49 55  320/ 10/ 14 1015.4R  1 7/8  2/ 3
ISLE OF SHOALS   1500   48     310/  9/ 11 1015.1R
S OF BLOCK IS    1600      60                N/A           3/ 4
$$

......................KEY.........................
  SKY/WX - SKY CONDITION/PRESENT WEATHER
  TMP    - TEMPERATURE IN FAHRENHEIT
  DWPT   - DEWPOINT IN FAHRENHEIT
  RH     - RELATIVE HUMIDITY IN PERCENT
  WIND   - DIRECTION AND SPEED IN MPH
  PRES   - MEAN SEA LEVEL PRESSURE IN INCHES OF HG
  WCI    - WIND CHILL INDEX
  VSB    - VISIBILITY IN MILES
  HX     - HEAT INDEX
  TC     - TEMPERATURE IN CELSIUS
  VRB    - VARIABLE WIND DIRECTION
  N/A    - NOT AVAILABLE
  
      

Other recent Regional Weather Roundups

Tue Oct 22, 2:10am

Tue Oct 22, 2:00am

Tue Oct 22, 1:10am

Tue Oct 22, 1:00am

Tue Oct 22, 12:10am

Tue Oct 22, 12:00am

Mon Oct 21, 11:10pm

Mon Oct 21, 11:00pm

Mon Oct 21, 10:10pm

Mon Oct 21, 10:01pm

Mon Oct 21, 9:10pm

Mon Oct 21, 9:00pm

Mon Oct 21, 8:10pm

Mon Oct 21, 8:00pm

Mon Oct 21, 7:10pm

Mon Oct 21, 7:01pm

Mon Oct 21, 6:10pm

Mon Oct 21, 6:01pm

Mon Oct 21, 5:10pm

Mon Oct 21, 5:01pm

Mon Oct 21, 4:10pm

Mon Oct 21, 4:00pm

Mon Oct 21, 3:10pm

Mon Oct 21, 3:01pm

Mon Oct 21, 2:10pm

Mon Oct 21, 2:00pm

Mon Oct 21, 1:10pm

Mon Oct 21, 1:01pm

Mon Oct 21, 12:10pm

Mon Oct 21, 12:00pm

Mon Oct 21, 11:10am

Mon Oct 21, 11:00am

Mon Oct 21, 10:10am

Mon Oct 21, 10:00am

Mon Oct 21, 9:10am

Mon Oct 21, 9:00am

Mon Oct 21, 7:10am

Mon Oct 21, 7:00am

Mon Oct 21, 6:10am

Mon Oct 21, 6:00am

Mon Oct 21, 5:10am

Mon Oct 21, 5:00am

Mon Oct 21, 4:10am

Mon Oct 21, 4:00am

Mon Oct 21, 3:10am

Mon Oct 21, 3:00am

Mon Oct 21, 2:10am

Mon Oct 21, 2:01am

Mon Oct 21, 1:10am

Mon Oct 21, 1:00am

Mon Oct 21, 12:10am

Mon Oct 21, 12:00am

Sun Oct 20, 11:10pm

Sun Oct 20, 11:00pm

Sun Oct 20, 10:10pm

Sun Oct 20, 10:00pm

Sun Oct 20, 9:10pm

Sun Oct 20, 9:01pm

Sun Oct 20, 8:10pm

Sun Oct 20, 8:00pm

Sun Oct 20, 7:10pm

Sun Oct 20, 7:01pm

Sun Oct 20, 6:10pm

Sun Oct 20, 6:00pm

Sun Oct 20, 5:10pm

Sun Oct 20, 5:00pm

Sun Oct 20, 4:10pm

Sun Oct 20, 4:00pm

Sun Oct 20, 3:10pm

Sun Oct 20, 3:00pm

Sun Oct 20, 2:10pm

Sun Oct 20, 2:01pm

Sun Oct 20, 1:10pm

Sun Oct 20, 1:01pm

Sun Oct 20, 12:10pm

Sun Oct 20, 12:00pm

Sun Oct 20, 11:10am

Sun Oct 20, 11:00am

Sun Oct 20, 10:10am

Sun Oct 20, 10:00am

Sun Oct 20, 9:10am

Sun Oct 20, 9:00am

Sun Oct 20, 8:10am

Sun Oct 20, 8:00am

Sun Oct 20, 7:10am

Sun Oct 20, 7:00am

Sun Oct 20, 6:10am

Sun Oct 20, 6:00am

Sun Oct 20, 5:10am

Sun Oct 20, 5:00am

Sun Oct 20, 4:10am

Sun Oct 20, 4:00am

Sun Oct 20, 3:10am

Sun Oct 20, 3:00am

Sun Oct 20, 2:10am

Sun Oct 20, 2:00am

Sun Oct 20, 1:10am

Sun Oct 20, 1:00am

Sun Oct 20, 12:10am

Sun Oct 20, 12:00am

Sat Oct 19, 11:10pm

Sat Oct 19, 11:00pm

Sat Oct 19, 10:10pm

Sat Oct 19, 10:00pm

Sat Oct 19, 9:10pm

Sat Oct 19, 9:00pm

Sat Oct 19, 8:10pm

Sat Oct 19, 8:00pm

Sat Oct 19, 7:10pm

Sat Oct 19, 7:00pm

Sat Oct 19, 6:10pm

Sat Oct 19, 6:00pm

Sat Oct 19, 5:10pm

Sat Oct 19, 5:00pm

Sat Oct 19, 4:10pm

Sat Oct 19, 4:00pm

Sat Oct 19, 3:10pm

Sat Oct 19, 3:01pm

Sat Oct 19, 2:10pm

Sat Oct 19, 2:00pm

Sat Oct 19, 1:10pm

Sat Oct 19, 1:01pm

Sat Oct 19, 12:00pm

Sat Oct 19, 11:10am

Sat Oct 19, 11:01am

Sat Oct 19, 10:10am

Sat Oct 19, 10:00am

Sat Oct 19, 9:10am

Sat Oct 19, 9:00am

Sat Oct 19, 8:10am

Sat Oct 19, 8:00am

Sat Oct 19, 7:10am

Sat Oct 19, 7:00am

Sat Oct 19, 6:10am

Sat Oct 19, 6:00am

Sat Oct 19, 5:10am

Sat Oct 19, 5:00am

Sat Oct 19, 4:10am

Sat Oct 19, 4:00am

Sat Oct 19, 3:10am

Sat Oct 19, 3:00am

Meta data:

ID: 388ae17f-0460-4bbe-8135-5fd353b5a666
Link: https://api.weather.gov/products/388ae17f-0460-4bbe-8135-5fd353b5a666